CUBESAT XI-V

Last updated on Sun Jun 21 2026 00:03:20 GMT+0000 (Coordinated Universal Time)

1 28895U 05043F 26171.39224119 .00001059 00000+0 17435-3 0 9999 2 28895 98.2989 327.0811 0013858 190.3179 169.7745 14.72638633102225
UTC large
Height (km)
Speed (km/s)
/
Latitude / Longitude
Inclination (degrees)
Orbital Period (minutes)
Azimuth
Elevation
Range (km)
Doppler Factor

Next 0 passes for location: London (51.5072 / 0.1276)

No passes found over London.
CUBESAT XI-V